Погода в Зингене

Германия     47°45′51″N   8°51′00″E
темп.,
°C
ветер,
м/с
пор.,
м/с
влажн.,
%
обл.,
%
осадки,
мм/ч
давл.,
гПа
погр.,
м
24 октября, вс
вс2423:00+3ссв36945 0.0 1029154
02:00+2с22945 0.0 102936
05:00+1с11961 0.0 102817
08:000ссв11961 0.0 102911
11:00+6вюв11730 0.0 1028286
14:00+11ююз12560 0.0 1025427
17:00+11ю11670 0.0 102414
20:00+5с11850 0.0 102510
25 октября, пн
пн2523:00+4ссв118820 0.0 102510
02:00+3з0088100 0.0 102510
05:00+4юз0085100 0.0 102410
08:00+2з119199 0.0 102410
11:00+8зюз0169100 0.0 1024156
14:00+12ююз1158100 0.0 1022305
17:00+11ю1170100 0.0 102111
20:00+6ссз1183100 0.0 102210
26 октября, вт
вт2623:00+5зюз11895 0.0 102410
02:00+4зюз119270 0.0 102410
05:00+3зюз119551 0.0 102510
08:00+5зюз009469 0.0 102514
11:00+10юз117920 0.0 1025283
14:00+13зсз116775 0.0 1024603
17:00+11ссз1179100 0.1 102415
20:00+10ссв0075100 0.1 102511
27 октября, ср
ср2723:00+8с228349 0.0 102627
02:00+5ссв11946 0.0 102612
05:00+5ссв119654 0.0 102712
08:00+4ссв119614 0.0 102814
11:00+9всв137845 0.0 1027362
14:00+13св3462100 0.0 1025752
17:00+12св367213 0.0 1024445
20:00+7с22949 0.0 102635
28 октября, чт
чт2823:00+6с22955 0.0 102639
02:00+4ссв22965 0.0 102524
05:00+3ссв11975 0.0 102413
08:00+3св11979 0.0 102410
11:00+8юв118322 0.0 1023267
14:00+12ююз12650 0.0 1020481
17:00+12юз11730 0.0 101912
20:00+7ссз11897 0.0 102110